Location: Camaret
(48.2753°N, 4.5961°W)
Time: 04:08:38
(UTC+00:00)

NOSS 3-4 (C) - Pass Details

Date: 29 October 2020
Orbit: 884 x 1328 km, 63.4° (Epoch: 28 November)

Event Time Altitude Azimuth Distance (km) Brightness Sun altitude
Rises 19:41:58 0° 318° (NW) 3,797 7.3 -26.8°
Reaches altitude 10° 19:44:28 10° 318° (NW) 2,901 6.6 -27.2°
Maximum altitude 19:51:25 85° 232° (SW) 1,165 3.8 -28.4°
Enters shadow 19:53:10 57° 150° (SSE) 1,365 3.9 -28.6°
